• In Lithuania
  • List of Countries
  • For 7 days
  • Water Temperature
  • Satellite Maps
  • Weather Map
  • Weather Widgets
  • user-avatar
    Login

    Hourly Weather Comayagua

    Today, 24 October, Tuesday

    Time Temperature Precipitation Wind Pressure Humidity
    00:00 +24°C° 0.3 mm 1 mps 707 mmHg 98%
    01:00 +24°C° 0.4 mm 1 mps 706 mmHg 98%
    02:00 +24°C° 0.4 mm 1 mps 706 mmHg 98%
    03:00 +24°C° 0.4 mm 1 mps 706 mmHg 98%
    04:00 +24°C° 0.3 mm 1 mps 706 mmHg 98%
    05:00 +24°C° 0.3 mm 1 mps 706 mmHg 97%
    06:00 +22°C° 0.3 mm 0 mps 706 mmHg 97%
    07:00 +24°C° 0.2 mm 1 mps 707 mmHg 95%
    08:00 +25°C° 0.2 mm 1 mps 707 mmHg 92%
    09:00 +26°C° 0.2 mm 1 mps 708 mmHg 90%
    10:00 +27°C° 0.6 mm 1 mps 707 mmHg 87%
    11:00 +27°C° 0.6 mm 1 mps 707 mmHg 85%
    12:00 +28°C° 0.6 mm 1 mps 707 mmHg 83%
    13:00 +27°C° 1.3 mm 1 mps 706 mmHg 85%
    14:00 +27°C° 1.3 mm 1 mps 706 mmHg 87%
    15:00 +27°C° 1.3 mm 1 mps 705 mmHg 89%
    16:00 +26°C° 1.3 mm 1 mps 705 mmHg 91%
    17:00 +25°C° 1.3 mm 1 mps 706 mmHg 94%
    18:00 +24°C° 1.3 mm 1 mps 706 mmHg 97%
    19:00 +24°C° 1.2 mm 1 mps 706 mmHg 97%
    20:00 +24°C° 1.2 mm 1 mps 707 mmHg 97%
    21:00 +24°C° 1.2 mm 1 mps 707 mmHg 97%
    22:00 +24°C° 1.1 mm 1 mps 707 mmHg 97%
    23:00 +24°C° 1.1 mm 1 mps 707 mmHg 97%

    Tomorrow, 25 October, Wednesday

    Time Temperature Precipitation Wind Pressure Humidity
    00:00 +23°C° 1.1 mm 1 mps 707 mmHg 98%
    01:00 +23°C° 1.7 mm 1 mps 707 mmHg 98%
    02:00 +23°C° 1.7 mm 1 mps 706 mmHg 97%
    03:00 +23°C° 1.7 mm 1 mps 706 mmHg 97%
    04:00 +23°C° 2.7 mm 1 mps 706 mmHg 97%
    05:00 +23°C° 2.7 mm 1 mps 706 mmHg 97%
    06:00 +23°C° 2.7 mm 1 mps 706 mmHg 97%
    07:00 +23°C° 2.7 mm 1 mps 707 mmHg 97%
    08:00 +23°C° 2.7 mm 1 mps 707 mmHg 96%
    09:00 +24°C° 2.7 mm 1 mps 708 mmHg 96%
    10:00 +24°C° 0.9 mm 1 mps 707 mmHg 93%
    11:00 +25°C° 0.9 mm 2 mps 707 mmHg 91%
    12:00 +25°C° 0.9 mm 2 mps 707 mmHg 88%
    13:00 +25°C° 0.9 mm 2 mps 706 mmHg 89%
    14:00 +25°C° 0.9 mm 2 mps 706 mmHg 89%
    15:00 +25°C° 0.9 mm 2 mps 705 mmHg 90%
    16:00 +24°C° 2.2 mm 3 mps 706 mmHg 92%
    17:00 +22°C° 2.2 mm 3 mps 706 mmHg 94%
    18:00 +21°C° 2.2 mm 3 mps 707 mmHg 96%
    19:00 +21°C° 1.7 mm 3 mps 707 mmHg 96%
    20:00 +21°C° 1.7 mm 3 mps 708 mmHg 96%
    21:00 +20°C° 1.7 mm 3 mps 708 mmHg 96%
    22:00 +20°C° 0.3 mm 3 mps 708 mmHg 96%
    23:00 +20°C° 0.3 mm 3 mps 708 mmHg 96%

    Day after tomorrow, 26 October, Thursday

    Time Temperature Precipitation Wind Pressure Humidity
    00:00 +20°C° 0.3 mm 3 mps 708 mmHg 96%
    01:00 +20°C° 0.3 mm 3 mps 708 mmHg 95%
    02:00 +20°C° 0.3 mm 3 mps 707 mmHg 95%
    03:00 +20°C° 0.3 mm 3 mps 707 mmHg 94%
    04:00 +20°C° 0.1 mm 3 mps 707 mmHg 94%
    05:00 +20°C° 0.1 mm 3 mps 707 mmHg 94%
    06:00 +20°C° 0.1 mm 3 mps 707 mmHg 94%
    07:00 +20°C° 0 mm 3 mps 708 mmHg 91%
    08:00 +21°C° 0 mm 4 mps 709 mmHg 87%
    09:00 +21°C° 0 mm 4 mps 709 mmHg 84%
    10:00 +22°C° 0 mm 4 mps 709 mmHg 78%
    11:00 +23°C° 0 mm 4 mps 709 mmHg 73%
    12:00 +25°C° 0 mm 4 mps 708 mmHg 67%
    13:00 +25°C° 0 mm 4 mps 708 mmHg 69%
    14:00 +24°C° 0 mm 3 mps 707 mmHg 71%
    15:00 +22°C° 0 mm 3 mps 707 mmHg 73%
    16:00 +21°C° 0 mm 3 mps 707 mmHg 77%
    17:00 +20°C° 0 mm 2 mps 707 mmHg 80%
    18:00 +19°C° 0 mm 2 mps 707 mmHg 84%
    19:00 +19°C° 0.1 mm 2 mps 708 mmHg 85%
    20:00 +19°C° 0.1 mm 2 mps 708 mmHg 86%
    21:00 +19°C° 0.1 mm 2 mps 709 mmHg 88%
    22:00 +18°C° 0 mm 2 mps 708 mmHg 89%
    23:00 +19°C° 0 mm 1 mps 708 mmHg 91%

    27 October, Friday

    Time Temperature Precipitation Wind Pressure Humidity
    00:00 +19°C° 0 mm 1 mps 708 mmHg 93%
    01:00 +19°C° 0 mm 1 mps 707 mmHg 93%
    02:00 +19°C° 0 mm 1 mps 707 mmHg 93%
    03:00 +19°C° 0 mm 1 mps 706 mmHg 94%
    04:00 +19°C° 0 mm 1 mps 707 mmHg 94%
    05:00 +19°C° 0 mm 1 mps 707 mmHg 93%
    06:00 +19°C° 0 mm 1 mps 707 mmHg 93%
    07:00 +21°C° 0.2 mm 1 mps 708 mmHg 87%
    08:00 +23°C° 0.2 mm 1 mps 709 mmHg 80%
    09:00 +24°C° 0.2 mm 1 mps 709 mmHg 74%
    10:00 +23°C° 0.2 mm 0 mps 709 mmHg 74%
    11:00 +23°C° 0.2 mm 0 mps 708 mmHg 74%
    12:00 +23°C° 0.2 mm 0 mps 708 mmHg 74%
    13:00 +23°C° 0.3 mm 0 mps 707 mmHg 78%
    14:00 +22°C° 0.3 mm 0 mps 707 mmHg 82%
    15:00 +21°C° 0.3 mm 0 mps 706 mmHg 85%
    16:00 +21°C° 0.3 mm 0 mps 707 mmHg 88%
    17:00 +21°C° 0.3 mm 0 mps 707 mmHg 90%
    18:00 +20°C° 0.3 mm 0 mps 708 mmHg 92%
    19:00 +20°C° 0.1 mm 0 mps 708 mmHg 93%
    20:00 +20°C° 0.1 mm 0 mps 709 mmHg 94%
    21:00 +20°C° 0.1 mm 0 mps 709 mmHg 95%
    22:00 +19°C° 0 mm 0 mps 709 mmHg 95%
    23:00 +19°C° 0 mm 0 mps 709 mmHg 96%

    28 October, Saturday

    Time Temperature Precipitation Wind Pressure Humidity
    00:00 +19°C° 0 mm 0 mps 708 mmHg 96%
    01:00 +19°C° 0.1 mm 0 mps 708 mmHg 96%
    02:00 +19°C° 0.1 mm 0 mps 708 mmHg 96%
    03:00 +19°C° 0.1 mm 0 mps 708 mmHg 95%
    04:00 +19°C° 0.2 mm 0 mps 708 mmHg 95%
    05:00 +19°C° 0.2 mm 0 mps 708 mmHg 95%
    06:00 +19°C° 0.2 mm 0 mps 709 mmHg 95%
    07:00 +23°C° 0.1 mm 1 mps 709 mmHg 91%
    08:00 +24°C° 0.1 mm 1 mps 710 mmHg 86%
    09:00 +25°C° 0.1 mm 1 mps 710 mmHg 82%
    10:00 +26°C° 0.3 mm 1 mps 710 mmHg 80%
    11:00 +26°C° 0.3 mm 1 mps 709 mmHg 79%
    12:00 +27°C° 0.3 mm 2 mps 709 mmHg 78%
    13:00 +26°C° 0.7 mm 1 mps 708 mmHg 81%
    14:00 +25°C° 0.7 mm 1 mps 708 mmHg 85%
    15:00 +25°C° 0.7 mm 1 mps 707 mmHg 89%
    16:00 +24°C° 2.2 mm 1 mps 708 mmHg 92%
    17:00 +23°C° 2.2 mm 1 mps 708 mmHg 95%
    18:00 +23°C° 2.2 mm 1 mps 709 mmHg 97%
    19:00 +23°C° 2.2 mm 1 mps 709 mmHg 97%
    20:00 +22°C° 2.2 mm 1 mps 709 mmHg 98%
    21:00 +22°C° 2.2 mm 1 mps 710 mmHg 98%
    22:00 +22°C° 0.1 mm 1 mps 709 mmHg 98%
    23:00 +21°C° 0.1 mm 1 mps 709 mmHg 98%

    29 October, Sunday

    Time Temperature Precipitation Wind Pressure Humidity
    00:00 +21°C° 0.1 mm 1 mps 708 mmHg 98%
    01:00 +21°C° 0 mm 1 mps 708 mmHg 98%
    02:00 +21°C° 0 mm 1 mps 707 mmHg 98%
    03:00 +20°C° 0 mm 1 mps 707 mmHg 98%
    04:00 +20°C° 0.6 mm 1 mps 707 mmHg 97%
    05:00 +20°C° 0.6 mm 1 mps 708 mmHg 97%
    06:00 +19°C° 0.6 mm 2 mps 708 mmHg 97%
    07:00 +20°C° 2.6 mm 1 mps 708 mmHg 97%
    08:00 +20°C° 2.6 mm 1 mps 709 mmHg 97%
    09:00 +20°C° 2.6 mm 1 mps 709 mmHg 97%
    10:00 +21°C° 3.5 mm 1 mps 709 mmHg 97%
    11:00 +21°C° 3.5 mm 1 mps 708 mmHg 97%
    12:00 +21°C° 3.5 mm 1 mps 708 mmHg 97%
    13:00 +20°C° 1.3 mm 2 mps 708 mmHg 96%
    14:00 +21°C° 1.3 mm 2 mps 707 mmHg 96%
    15:00 +21°C° 1.3 mm 2 mps 707 mmHg 95%
    16:00 +21°C° 0.4 mm 2 mps 707 mmHg 96%
    17:00 +20°C° 0.4 mm 2 mps 708 mmHg 97%
    18:00 +20°C° 0.4 mm 2 mps 708 mmHg 97%
    19:00 +20°C° 0.5 mm 2 mps 709 mmHg 97%
    20:00 +20°C° 0.5 mm 2 mps 709 mmHg 98%
    21:00 +20°C° 0.5 mm 2 mps 709 mmHg 98%
    22:00 +20°C° 0.3 mm 2 mps 709 mmHg 98%
    23:00 +19°C° 0.3 mm 2 mps 709 mmHg 98%

    30 October, Monday

    Time Temperature Precipitation Wind Pressure Humidity
    00:00 +19°C° 0.3 mm 2 mps 708 mmHg 98%
    01:00 +19°C° 0.4 mm 2 mps 708 mmHg 97%
    02:00 +19°C° 0.4 mm 2 mps 708 mmHg 97%
    03:00 +19°C° 0.4 mm 2 mps 708 mmHg 97%
    04:00 +19°C° 0.5 mm 2 mps 708 mmHg 97%
    05:00 +18°C° 0.5 mm 2 mps 708 mmHg 96%
    06:00 +18°C° 0.5 mm 2 mps 708 mmHg 96%
    07:00 +19°C° 0.3 mm 2 mps 709 mmHg 95%
    08:00 +20°C° 0.3 mm 1 mps 709 mmHg 95%
    09:00 +20°C° 0.3 mm 1 mps 709 mmHg 94%
    10:00 +20°C° 0.1 mm 1 mps 709 mmHg 93%
    11:00 +21°C° 0.1 mm 1 mps 709 mmHg 92%
    12:00 +21°C° 0.1 mm 1 mps 708 mmHg 91%
    13:00 +21°C° 0.3 mm 1 mps 708 mmHg 92%
    14:00 +21°C° 0.3 mm 1 mps 708 mmHg 92%
    15:00 +21°C° 0.3 mm 1 mps 707 mmHg 92%
    16:00 +21°C° 0.3 mm 1 mps 707 mmHg 94%
    17:00 +21°C° 0.3 mm 1 mps 708 mmHg 95%
    18:00 +20°C° 0.3 mm 1 mps 708 mmHg 96%
    Show more